Location: Hochstatterhof
(48.7256°N, 10.3487°E)
Time: 03:11:04
(UTC+00:00)

USA 281 - Pass Details

Date: 26 September 2023
Orbit: 1077 x 1081 km, 106.0° (Epoch: 19 November)

Event Time Altitude Azimuth Distance (km) Brightness Sun altitude
Rises 01:37:24 0° 25° (NNE) 3,892 7.1 -32.8°
Reaches altitude 10° 01:39:55 10° 26° (NNE) 2,933 6.3 -32.5°
Enters shadow 01:46:24 85° 76° (ENE) 1,093 3.1 -31.8°
